Home   Weather   Langesund   Past weeks

Flag for Norway Past Weather in Langesund, Norway — Yesterday and Last 2 Weeks

Now
39 °F

Chilly.


Feels Like: 39 °F
Forecast: 27 / 36 °F
Wind: 1 mph from North

Location: Jomfruland Fyr

Current Time: Dec 6, 2016 at 1:54:21 am

Latest Report: Dec 6, 2016 at 1:00 am


Visibility: N/A

Pressure: 30.26 "Hg

Humidity: 72%

Dew Point: 31 °F

Location of LangesundLocation

Past Weather in Langesund — Graph

°F

Langesund Temperature Yesterday

Maximum temperature yesterday: 49 °F (at 1:00 pm)
Minimum temperature yesterday: 38 °F (at 8:00 am)
Average temperature yesterday: 42 °F

High & Low Weather Summary for the Past Weeks

 TemperatureHumidityPressure
High49 °F (Nov 26, 1:00 pm)96% (Nov 22, 11:00 am)30.49 "Hg (Nov 22, 11:00 am)
Low30 °F (Nov 28, 10:00 pm)37% (Nov 27, 2:00 pm)29.26 "Hg (Nov 21, 12:00 am)
Average40 °F73%30.00 "Hg
* Reported Nov 21 12:00 am — Dec 6 12:00 am, Langesund, Weather by CustomWeather, © 2016

Note: Actual official high and low records may vary slightly from our data, if they occured in-between our weather recording intervals... More about our weather records

Advertising

Langesund Weather History for the Previous 24 Hours

Scroll right to see more
 ConditionsComfort  
Time TempWeatherWind HumidityBarometerVisibility
12:00 am
Tue, Dec 6
40 °FChilly.1 mph73%30.24 "HgN/A
11:00 pm
Mon, Dec 5
40 °FQuite cool.2 mph71%30.22 "HgN/A
10:00 pm41 °FQuite cool.3 mph72%30.19 "HgN/A
9:00 pm41 °FQuite cool.3 mph70%30.17 "HgN/A
8:00 pm40 °FChilly.3 mph77%30.14 "HgN/A
7:00 pm41 °FQuite cool.1 mph71%30.10 "HgN/A
6:00 pm42 °FQuite cool.1 mph66%30.10 "HgN/A
5:00 pm44 °FQuite cool.2 mph64%30.07 "HgN/A
4:00 pm45 °FCool.2 mph63%30.05 "HgN/A
3:00 pm47 °FCool.6 mph55%30.04 "HgN/A
2:00 pm48 °FCool.8 mph52%30.03 "HgN/A
1:00 pm49 °FCool.6 mph54%30.04 "HgN/A
12:00 pm43 °FQuite cool.6 mph73%30.04 "HgN/A
11:00 am41 °FQuite cool.6 mph77%30.05 "HgN/A
10:00 am40 °FQuite cool.6 mph82%30.05 "HgN/A
9:00 am40 °FQuite cool.5 mph83%30.04 "HgN/A
8:00 am38 °FChilly.1 mph82%30.03 "HgN/A
7:00 am39 °FChilly.3 mph82%30.03 "HgN/A
6:00 am40 °FChilly.5 mph82%30.03 "HgN/A
5:00 am39 °FChilly.1 mph84%30.04 "HgN/A
4:00 am40 °FQuite cool.7 mph82%30.05 "HgN/A
3:00 am41 °FQuite cool.5 mph78%30.06 "HgN/A
2:00 am41 °FQuite cool.6 mph80%30.06 "HgN/A
1:00 am41 °FQuite cool.7 mph80%30.07 "HgN/A
Weather by CustomWeather, © 2016

See weather overviewHow to use our weather pages